Regional Weather Roundup
Issued by NWS Sterling, VA

Home | Current Version | Previous Version | Text Only | Print | Product List | Glossary On
Versions: 1 2 3 4 5 6 7 8 9 10 11 12 13 14 15 16 17 18 19 20 21 22 23 24 25 26 27
000
ASUS41 KLWX 270111
RWRLWX

REGIONAL WEATHER ROUNDUP
NATIONAL WEATHER SERVICE BALTIMORE MD/WASHINGTON DC
900 PM EDT MON JUN 26 2017

Note: "FAIR" indicates few or no clouds below 12,000 feet
with no significant weather and/or obstructions to visibility.
 TC=TEMPERATURE CELSIUS

 * =Non NWS site. Station does not report precipitation (e.g. rain,
    snow, etc.), thunder, or fog.

DCZ001-MDZ009-015-VAZ040>042-051-053>054-270200-
WASHINGTON METRO

CITY           SKY/WX    TMP DP  RH WIND       PRES   REMARKS
WASHINGTON NAT MOCLDY    78  56  46 S10       29.98F
DULLES         MOCLDY    74  50  42 S5        29.98F
ANDREWS AFB    CLEAR     71  53  52 S7        29.98F
FT BELVOIR     PTCLDY    70  58  65 CALM      29.98S
QUANTICO       CLEAR     78  55  44 SW6       29.99S
COLLEGE PARK*  PTCLDY    77  51  39 S3        29.98F
LEESBURG*      CLEAR     73  55  53 CALM      29.99F
MANASSAS*      CLOUDY    71  60  68 S5        29.98S
GAITHERSBURG*  PTCLDY    75  50  41 S3        30.00F

$$

MDZ006>007-011-014-270200-
BALTIMORE METRO

CITY           SKY/WX    TMP DP  RH WIND       PRES   REMARKS
BWI AIRPORT    PTCLDY    75  54  47 SE5       29.98S
MD SCIENCE CTR   N/A     79  51  37 MISG      29.99S
MARTIN STATE   PTCLDY    75  55  50 S7        29.99F
ANNAPOLIS      CLEAR     73  60  63 S9        29.99S
FORT MEADE*    MOCLDY    68  59  73 SE3       30.01S

$$

MDZ012-015-019>023-270200-
MARYLAND EASTERN SHORE

CITY           SKY/WX    TMP DP  RH WIND       PRES   REMARKS
OCEAN CITY     CLEAR     73  62  68 SW10G17   30.02S
SALISBURY      CLEAR     71  55  56 S7        30.01S
BAY BRIDGE AP* CLEAR     75  55  50 S3        29.99S
CAMBRIDGE*     CLEAR     70  59  68 CALM      30.00S
EASTON*        PTCLDY    73  54  49 S3        30.04R

$$

MDZ017>025-270200-
SOUTHERN MARYLAND

CITY           SKY/WX    TMP DP  RH WIND       PRES   REMARKS
PATUXENT RIVER PTCLDY    74  59  59 S5        30.00S
ST INIGOES     PTCLDY    74  61  63 SE3       29.99S
LEONARDTOWN*   CLEAR     70  57  64 CALM      30.02S

$$

MDZ003>005-270200-
NORTH CENTRAL MARYLAND

CITY           SKY/WX    TMP DP  RH WIND       PRES   REMARKS
FREDERICK*     NOT AVBL
HAGERSTOWN APT MOCLDY    74  52  46 W8        30.00R
WESTMINSTER*   CLEAR     73  52  46 CALM      30.00S

$$

MDZ501>502-270200-
WESTERN MARYLAND

CITY           SKY/WX    TMP DP  RH WIND       PRES   REMARKS
OAKLAND*       NOT AVBL
CUMBERLAND*    CLEAR     72  45  37 W7        30.06S

$$

VAZ025>031-270200-
SHENANDOAH VALLEY

CITY           SKY/WX    TMP DP  RH WIND       PRES   REMARKS
WINCHESTER*    CLEAR     68  50  52 NW6       30.00S
FRONT ROYAL*   PTCLDY    70  54  56 CALM      29.99F
LURAY*         CLEAR     70  55  60 N3        30.00S
NEW MARKET*    CLEAR     66  49  53 CALM      30.00S
STAUNTON*      CLEAR     69  46  43 W3        30.04S
WAYNESBORO*    CLEAR     68  49  49 CALM      30.03S

$$

WVZ021-048>050-054>055-270200-
EASTERN WEST VIRGINIA PANHANDLE

CITY           SKY/WX    TMP DP  RH WIND       PRES   REMARKS
MARTINSBURG    CLEAR     72  52  49 NW8       29.99S
PETERSBURG*    CLEAR     66  51  57 W6        30.05R

$$

VAZ036>039-050-270200-
CENTRAL FOOTHILLS

CITY           SKY/WX    TMP DP  RH WIND       PRES   REMARKS
CHARLOTTESVILL CLEAR     75  52  44 SW3       29.99F
CULPEPER*      MOCLDY    71  57  62 CALM      29.99F
ORANGE*        CLEAR     68  54  60 CALM      29.99F
GORDONSVILLE*  CLEAR     68  57  66 CALM      29.99F
WARRENTON*     CLEAR     72  50  45 S3        29.99S

$$

VAZ055>057-270200-
NORTH AND CENTRAL PIEDMONT

CITY           SKY/WX    TMP DP  RH WIND       PRES   REMARKS
FREDERICKSBRG* CLEAR     72  57  59 S5        29.98F
STAFFORD*      CLEAR     66  58  74 CALM      30.03S

$$

NCZ024-NYZ072-PAZ021-071-VAZ022-071-270200-
OTHER REGIONAL OBSERVATIONS

CITY           SKY/WX    TMP DP  RH WIND       PRES   REMARKS
NEW YORK CITY  CLEAR     74  46  36 MISG      29.99F
PHILADELPHIA   PTCLDY    76  50  40 S6        29.99S
PITTSBURGH     MOCLDY    65  50  58 SW5       30.02S
ROANOKE        PTCLDY    70  51  51 NW5       30.06R
RICHMOND       PTCLDY    71  57  61 SW7       30.00S
RALEIGH        CLOUDY    73  60  63 CALM      30.04S

$$

ANZ530>537-270200-
MARINE OBSERVATIONS

STATION/POSITION TIME  TEMP    WIND        PRES
                       AIR SEA DIR/SP/G
                 (UTC) (F)     (DEG/KT/KT) (MB)
THOMAS PT LIGHT  0100   77 78  180/ 16/ 17   N/A
BALT KEY BRIDGE  0042   77     150/ 10/ 11 1015.0S
COVE POINT       0042   77     190/ 12/ 13 1016.4S
LEWISETTA        0042   76 80  170/  9/ 10 1015.7R
SOLOMONS ISLAND  0042   76 80  160/  7/  8   N/A
PINEY POINT      0042          170/ 10/ 11   N/A

$$





USA.gov is the U.S. government's official web portal to all federal, state and local government web resources and services.